This is the latest recevied weather packets stored in our database for station/object DO1SC. If no packets are shown the sender has not sent any weather packets the latest 10 day(s).
| Time | Temp. | Humidity | Pressure | Rain* | Wind** | Luminosity | Snow |
|---|---|---|---|---|---|---|---|
| 1777748122 | 18.89° C | 34% | 1019.1 hPa | - | - | 0 W/m² | - |
| 1777747533 | 19.44° C | 34% | 1019 hPa | - | - | 1 W/m² | - |
| 1777746928 | 19.44° C | 33% | 1019 hPa | - | - | 3 W/m² | - |
| 1777746319 | 20° C | 33% | 1019 hPa | - | - | 7 W/m² | - |
| 1777745728 | 20° C | 34% | 1018.9 hPa | - | - | 12 W/m² | - |
| 1777745120 | 20.56° C | 32% | 1019 hPa | - | - | 18 W/m² | - |
| 1777744532 | 20.56° C | 31% | 1018.9 hPa | - | - | 25 W/m² | - |
| 1777743927 | 21.11° C | 31% | 1019 hPa | - | - | 33 W/m² | - |
| 1777743335 | 21.11° C | 30% | 1019 hPa | - | - | 40 W/m² | - |
| 1777742726 | 21.67° C | 30% | 1019 hPa | - | - | 48 W/m² | - |
| 1777742118 | 21.67° C | 29% | 1019.2 hPa | - | - | 52 W/m² | - |
| 1777741529 | 22.22° C | 28% | 1019.2 hPa | - | - | 55 W/m² | - |
| 1777740921 | 22.22° C | 28% | 1019.3 hPa | - | - | 62 W/m² | - |
| 1777740332 | 22.78° C | 28% | 1019.4 hPa | - | - | 74 W/m² | - |
| 1777739724 | 22.78° C | 26% | 1019.6 hPa | - | - | 87 W/m² | - |
| 1777739138 | 22.78° C | 25% | 1019.6 hPa | - | - | 92 W/m² | - |
| 1777738527 | 22.78° C | 25% | 1019.7 hPa | - | - | 113 W/m² | - |
| 1777737938 | 22.78° C | 24% | 1019.8 hPa | - | - | 139 W/m² | - |
| 1777737330 | 22.78° C | 25% | 1019.9 hPa | - | - | 199 W/m² | - |
| 1777736722 | 22.78° C | 25% | 1020 hPa | - | - | 73 W/m² | - |
| 1777736133 | 22.78° C | 24% | 1020 hPa | - | - | 67 W/m² | - |
| 1777735525 | 23.33° C | 24% | 1020.1 hPa | - | - | 66 W/m² | - |
| 1777734936 | 22.78° C | 23% | 1020.2 hPa | - | - | 235 W/m² | - |
| 1777734328 | 23.33° C | 22% | 1020.3 hPa | - | - | 322 W/m² | - |
| 1777733720 | 22.78° C | 23% | 1020.4 hPa | - | - | 343 W/m² | - |
* Rain since midnight (hover to see other rain measurements)
** Current wind speed in m/s (hover to see current wind gust speed)